Terminal Aerodrome Forecast
Issued by NWS State College, PA

Home | Current Version | Previous Version | Text Only | Print | Product List | Glossary On
Versions: 1 2 3 4 5 6 7 8 9 10 11 12 13 14 15 16 17 18 19 20 21 22 23 24 25 26 27 28 29 30 31 32 33 34 35 36 37 38 39 40 41 42 43 44 45 46 47 48 49 50
000
FTUS41 KCTP 161724
TAFIPT
TAF
KIPT 161724Z 1618/1718 29009KT P6SM SCT025 BKN035
     FM162300 30004KT P6SM SKC
     FM170400 VRB03KT 3SM BR SKC
     FM170700 00000KT 1SM BR SCT003
     FM170900 00000KT 1/4SM FG BKN002
     FM171300 VRB03KT 2SM BR SCT002
     FM171400 VRB03KT P6SM SCT070=

USA.gov is the U.S. government's official web portal to all federal, state and local government web resources and services.